Location: Colonia Mina de C?rbuni
(46.1667°N, 22.7167°E)
Time: 02:47:54
(UTC+00:00)

Courier 1B Rocket - All Passes

Search period start: 22 April 2024 00:00
Search period end: 02 May 2024 00:00
Orbit: 920 x 1201 km, 28.2° (Epoch: 21 April)

Date Brightness Start Highest point End Pass type
(mag) Time Alt. Az. Time Alt. Az. Time Alt. Az.
22 Apr - 01:47:20 10° SSW 01:50:55 14° SSE 01:54:26 10° SE visible
22 Apr - 03:38:34 10° SW 03:43:17 18° S 03:47:50 10° SE daylight
22 Apr - 05:32:10 10° SW 05:35:33 14° SSW 05:38:51 10° SSE daylight
23 Apr - 00:47:46 10° S 00:50:03 11° SSE 00:52:19 10° SE visible
23 Apr - 02:37:37 10° SW 02:42:23 18° S 02:47:00 10° SE visible
23 Apr - 04:30:27 10° SW 04:34:44 16° S 04:38:53 10° SSE daylight
24 Apr - 01:36:55 10° SSW 01:41:29 17° S 01:45:55 10° SE visible
24 Apr - 03:29:03 10° SW 03:33:53 18° S 03:38:32 10° SE daylight
24 Apr - 05:23:47 10° SW 05:26:05 12° SSW 05:28:21 10° S daylight
25 Apr - 00:36:36 10° SSW 00:40:33 15° SSE 00:44:27 10° SE visible
25 Apr - 02:27:53 10° SW 02:32:57 19° S 02:37:52 10° SE visible
25 Apr - 04:21:26 10° SW 04:25:18 15° SSW 04:29:03 10° SSE daylight
25 Apr - 23:36:58 10° S 23:39:39 12° SSE 23:42:20 10° SE visible
26 Apr - 01:26:58 10° SW 01:32:01 19° S 01:36:58 10° SE visible
26 Apr - 03:19:46 10° SW 03:24:26 17° S 03:28:58 10° SSE daylight
27 Apr - 00:26:18 10° SSW 00:31:03 17° S 00:35:46 10° SE visible
27 Apr - 02:18:24 10° SW 02:23:30 19° S 02:28:30 10° SE visible
27 Apr - 04:12:55 10° SW 04:15:48 12° SSW 04:18:37 10° S daylight
27 Apr - 23:26:01 10° SSW 23:30:07 15° SSE 23:34:13 10° SE visible
28 Apr - 01:17:17 10° SW 01:22:33 20° S 01:27:44 10° SE visible
28 Apr - 03:10:45 10° SW 03:14:57 16° SSW 03:19:04 10° SSE daylight
28 Apr - 22:26:27 10° S 22:29:14 12° SSE 22:32:00 10° SE night (unlit)
29 Apr - 00:16:25 10° SW 00:21:34 19° S 00:26:43 10° SE visible
29 Apr - 02:09:08 10° SW 02:14:02 18° S 02:18:51 10° SSE visible
29 Apr - 23:15:50 10° SSW 23:20:37 18° S 23:25:25 10° SE visible
30 Apr - 01:07:50 10° SW 01:13:04 20° S 01:18:16 10° SE visible
30 Apr - 03:02:12 10° SW 03:05:26 13° SSW 03:08:37 10° S daylight
30 Apr - 22:15:39 10° SSW 22:19:42 15° SSE 22:23:46 10° SE night (unlit)
01 May - 00:06:49 10° SW 00:12:06 20° S 00:17:24 10° SE visible
01 May - 02:00:10 10° SW 02:04:32 16° SSW 02:08:52 10° SSE visible
01 May - 21:16:15 10° S 21:18:49 12° SSE 21:21:25 10° SE night (unlit)
01 May - 23:06:02 10° SW 23:11:08 19° S 23:16:17 10° SE visible
